RADUGA-1 3 (22981 NORAD) Tracking and Keplerian Element Data

This shows tracking and keplerian element data for the satellite.

Feedback or suggestion? Click here.




ElementValue
Catalog22981
NameRADUGA-1 3
Epoch Orbit11347
Epoch Day34.34336657
Epoch Year2025
RAAN351.9462
Inclination14.3681
Eccentricity0.000164
Argument of Perigee208.6012
Mean Anonmoly142.0922
Mean Motion1.00219372
Decay Rate-1.92E-06
L11 22981U 94008A 25034.34336657 -.00000192 00000+0 00000+0 0 9995
L22 22981 14.3681 351.9462 0001640 208.6012 142.0922 1.00219372113478



Live tracking and technical data element details for RADUGA-1 3 (NORAD 22981). RADUGA-1 3 can be tracked NOW for your location showing map with azimuth and elevation plus other details from your city location.







IsCatalogInMostPopularTable: catalog: 22981, numindb: 332
Update: records affected: 1



GetName: 22981 RADUGA-1 3

Hit Count: updated at: Thu, 15 May 2025 20:13:40 GMT